NKS3 KEWR-KDTW

Flight info

Callsign NKS3
Flight time 1h 40m
Altitude 38000
Route GAYEL J95 CFB TRAAD JACCI FERRL2
Aircraft A320/M-SDE3FGHIRWY/LB1

Departure

Time 2026-05-06 17:50
Airport Newark Liberty International Airport (KEWR)

Arrival

Time 2026-05-06 19:30
Airport Detroit Metropolitan Wayne County Airport (KDTW)
Time Latitude Longitude Altitude Speed Heading
2026-05-06 17:18 40.69562 -74.17238 26 ft 0 kts 317°
2026-05-06 17:40 40.69556 -74.17231 23 ft 4 kts 317°
2026-05-06 17:41 40.69536 -74.17207 22 ft 4 kts 315°
2026-05-06 17:41 40.69520 -74.17180 24 ft 4 kts 294°
2026-05-06 17:41 40.69514 -74.17147 23 ft 3 kts 264°
2026-05-06 17:41 40.69514 -74.17142 23 ft 0 kts 263°
2026-05-06 17:42 40.69515 -74.17126 22 ft 2 kts 263°
2026-05-06 17:42 40.69517 -74.17105 22 ft 2 kts 263°
2026-05-06 17:42 40.69515 -74.17086 22 ft 2 kts 320°
2026-05-06 17:43 40.69507 -74.17077 26 ft 0 kts 355°
2026-05-06 17:45 40.69511 -74.17077 27 ft 1 kts 355°
2026-05-06 17:45 40.69519 -74.17076 22 ft 0 kts 14°
2026-05-06 17:45 40.69527 -74.17065 22 ft 3 kts 53°
2026-05-06 17:46 40.69529 -74.17028 22 ft 5 kts 84°
2026-05-06 17:46 40.69540 -74.16963 22 ft 9 kts 63°
2026-05-06 17:46 40.69604 -74.16911 22 ft 13 kts 25°
2026-05-06 17:46 40.69669 -74.16870 22 ft 11 kts 25°
2026-05-06 17:47 40.69731 -74.16831 22 ft 7 kts 26°
2026-05-06 17:47 40.69764 -74.16806 22 ft 2 kts 33°
2026-05-06 17:47 40.69793 -74.16789 22 ft 7 kts 22°
2026-05-06 17:47 40.69850 -74.16769 22 ft 10 kts
2026-05-06 17:48 40.69933 -74.16760 22 ft 14 kts
2026-05-06 17:48 40.70033 -74.16748 22 ft 11 kts
2026-05-06 17:48 40.70078 -74.16667 22 ft 14 kts 92°
2026-05-06 17:48 40.70069 -74.16540 21 ft 12 kts 95°
2026-05-06 17:49 40.70059 -74.16420 22 ft 15 kts 109°
2026-05-06 17:49 40.69982 -74.16393 19 ft 14 kts 204°
2026-05-06 17:49 40.69786 -74.16517 21 ft 62 kts 206°
2026-05-06 17:49 40.69212 -74.16879 23 ft 118 kts 206°
2026-05-06 17:50 40.68335 -74.17435 106 ft 156 kts 205°
2026-05-06 17:50 40.67270 -74.18132 374 ft 187 kts 204°
2026-05-06 17:50 40.65936 -74.18570 885 ft 211 kts 188°
2026-05-06 17:50 40.64445 -74.19040 1461 ft 228 kts 205°
2026-05-06 17:51 40.62994 -74.19955 2193 ft 235 kts 209°
2026-05-06 17:51 40.61566 -74.20997 2412 ft 234 kts 211°
2026-05-06 17:51 40.60155 -74.22054 2469 ft 233 kts 211°
2026-05-06 17:51 40.58748 -74.23095 2475 ft 231 kts 210°
2026-05-06 17:52 40.57342 -74.24112 2478 ft 230 kts 210°
2026-05-06 17:52 40.55953 -74.25174 2483 ft 232 kts 220°
2026-05-06 17:52 40.55077 -74.26949 3188 ft 239 kts 251°
2026-05-06 17:52 40.55063 -74.29165 4217 ft 253 kts 278°
2026-05-06 17:53 40.55692 -74.31364 5207 ft 260 kts 287°
2026-05-06 17:53 40.56447 -74.33549 6158 ft 265 kts 289°
2026-05-06 17:53 40.57611 -74.35503 7025 ft 284 kts 315°
2026-05-06 17:53 40.59418 -74.36701 7959 ft 299 kts 334°
2026-05-06 17:54 40.61430 -74.37466 8844 ft 304 kts 337°
2026-05-06 17:54 40.63497 -74.38171 9626 ft 311 kts 337°
2026-05-06 17:54 40.65601 -74.38866 9880 ft 312 kts 338°
2026-05-06 17:54 40.67706 -74.39550 9965 ft 312 kts 338°
2026-05-06 17:55 40.69814 -74.40231 9981 ft 313 kts 338°
2026-05-06 17:55 40.72033 -74.40976 9996 ft 346 kts 338°
2026-05-06 17:55 40.74451 -74.41819 9984 ft 367 kts 338°
2026-05-06 17:55 40.76933 -74.42686 9977 ft 365 kts 338°
2026-05-06 17:56 40.79324 -74.43483 9987 ft 345 kts 338°
2026-05-06 17:56 40.81599 -74.44211 9988 ft 328 kts 338°
2026-05-06 17:56 40.83767 -74.44904 9987 ft 314 kts 338°
2026-05-06 17:56 40.85871 -74.45568 9989 ft 310 kts 338°
2026-05-06 17:57 40.88013 -74.46255 9992 ft 332 kts 338°
2026-05-06 17:57 40.90361 -74.47054 9991 ft 362 kts 338°
2026-05-06 17:57 40.92833 -74.47916 9986 ft 368 kts 338°
2026-05-06 17:57 40.95360 -74.48337 9991 ft 372 kts 355°
2026-05-06 17:58 40.97999 -74.47768 10440 ft 391 kts
2026-05-06 17:58 41.00674 -74.47007 11108 ft 395 kts
2026-05-06 17:58 41.03373 -74.46254 11787 ft 399 kts
2026-05-06 17:58 41.06105 -74.45496 12494 ft 402 kts
2026-05-06 17:59 41.08856 -74.44735 13171 ft 406 kts
2026-05-06 17:59 41.11633 -74.43964 13857 ft 410 kts
2026-05-06 17:59 41.14434 -74.43181 14530 ft 413 kts
2026-05-06 17:59 41.17266 -74.42381 15162 ft 418 kts
2026-05-06 18:00 41.20116 -74.41571 15803 ft 422 kts
2026-05-06 18:00 41.22996 -74.40750 16457 ft 425 kts
2026-05-06 18:00 41.25907 -74.39923 17097 ft 429 kts
2026-05-06 18:00 41.28843 -74.39089 17770 ft 434 kts
2026-05-06 18:01 41.31808 -74.38252 18395 ft 437 kts
2026-05-06 18:01 41.34801 -74.37917 18978 ft 429 kts 351°
2026-05-06 18:01 41.37711 -74.38516 19556 ft 419 kts 336°
2026-05-06 18:01 41.40375 -74.39962 20144 ft 409 kts 323°
2026-05-06 18:02 41.42677 -74.42103 20687 ft 400 kts 311°
2026-05-06 18:02 41.44527 -74.44807 21215 ft 391 kts 299°
2026-05-06 18:02 41.45946 -74.47864 21719 ft 388 kts 294°
2026-05-06 18:02 41.47296 -74.50983 22222 ft 390 kts 294°
2026-05-06 18:03 41.48655 -74.54130 22705 ft 392 kts 294°
2026-05-06 18:03 41.50014 -74.57279 23172 ft 393 kts 294°
2026-05-06 18:03 41.51383 -74.60456 23592 ft 396 kts 294°
2026-05-06 18:03 41.52754 -74.63643 23998 ft 396 kts 294°
2026-05-06 18:04 41.54128 -74.66837 24413 ft 397 kts 294°
2026-05-06 18:04 41.55503 -74.70038 24741 ft 397 kts 294°
2026-05-06 18:04 41.56873 -74.73225 24824 ft 396 kts 293°
2026-05-06 18:04 41.58241 -74.76412 24839 ft 395 kts 293°
2026-05-06 18:05 41.59608 -74.79598 24842 ft 395 kts 293°
2026-05-06 18:05 41.60984 -74.82806 25156 ft 398 kts 293°
2026-05-06 18:05 41.62362 -74.86026 25546 ft 400 kts 293°
2026-05-06 18:05 41.63745 -74.89263 25949 ft 401 kts 293°
2026-05-06 18:06 41.65130 -74.92506 26348 ft 402 kts 293°
2026-05-06 18:06 41.66517 -74.95760 26745 ft 403 kts 293°
2026-05-06 18:06 41.67902 -74.99015 27117 ft 404 kts 293°
2026-05-06 18:06 41.69295 -75.02293 27463 ft 405 kts 292°
2026-05-06 18:07 41.70671 -75.05533 27828 ft 406 kts 292°
2026-05-06 18:07 41.72067 -75.08815 28330 ft 404 kts 293°
2026-05-06 18:07 41.73450 -75.12061 28995 ft 399 kts 292°
2026-05-06 18:07 41.74813 -75.15267 29667 ft 394 kts 292°
2026-05-06 18:08 41.76156 -75.18437 30209 ft 390 kts 292°
2026-05-06 18:08 41.77485 -75.21579 30699 ft 386 kts 292°
2026-05-06 18:08 41.78797 -75.24691 31188 ft 382 kts 292°
2026-05-06 18:08 41.80098 -75.27782 31689 ft 378 kts 292°
2026-05-06 18:09 41.81381 -75.30832 32205 ft 375 kts 291°
2026-05-06 18:09 41.82653 -75.33861 32739 ft 370 kts 291°
2026-05-06 18:09 41.83910 -75.36854 33254 ft 367 kts 291°
2026-05-06 18:09 41.85155 -75.39819 33776 ft 363 kts 291°
2026-05-06 18:10 41.86386 -75.42755 34266 ft 359 kts 291°
2026-05-06 18:10 41.87602 -75.45664 34704 ft 356 kts 291°
2026-05-06 18:10 41.88810 -75.48556 35104 ft 354 kts 291°
2026-05-06 18:10 41.90011 -75.51436 35470 ft 353 kts 291°
2026-05-06 18:11 41.91208 -75.54309 35803 ft 352 kts 291°
2026-05-06 18:11 41.92404 -75.57175 36144 ft 351 kts 291°
2026-05-06 18:11 41.93599 -75.60031 36465 ft 351 kts 291°
2026-05-06 18:11 41.94794 -75.62885 36808 ft 350 kts 291°
2026-05-06 18:12 41.95985 -75.65736 37155 ft 349 kts 291°
2026-05-06 18:12 41.97170 -75.68582 37491 ft 349 kts 291°
2026-05-06 18:12 41.98353 -75.71427 37735 ft 349 kts 291°
2026-05-06 18:12 41.99537 -75.74283 37785 ft 351 kts 291°
2026-05-06 18:13 42.01912 -75.80018 37811 ft 351 kts 291°
2026-05-06 18:13 42.04285 -75.85762 37788 ft 352 kts 291°
2026-05-06 18:14 42.06662 -75.91513 37802 ft 352 kts 291°
2026-05-06 18:14 42.09031 -75.97269 37796 ft 351 kts 291°
2026-05-06 18:15 42.11399 -76.03031 37804 ft 352 kts 291°
2026-05-06 18:15 42.13750 -76.08767 37823 ft 352 kts 291°
2026-05-06 18:16 42.15735 -76.14697 37863 ft 341 kts 278°
2026-05-06 18:16 42.16324 -76.20984 37838 ft 338 kts 272°
2026-05-06 18:17 42.16802 -76.27302 37846 ft 339 kts 272°
2026-05-06 18:17 42.17294 -76.33665 37841 ft 339 kts 273°
2026-05-06 18:18 42.17778 -76.39958 37856 ft 340 kts 272°
2026-05-06 18:18 42.18257 -76.46287 37858 ft 340 kts 272°
2026-05-06 18:19 42.18729 -76.52628 37890 ft 340 kts 272°
2026-05-06 18:19 42.19198 -76.58974 37882 ft 340 kts 272°
2026-05-06 18:20 42.19665 -76.65314 37884 ft 340 kts 272°
2026-05-06 18:20 42.20132 -76.71654 37882 ft 340 kts 272°
2026-05-06 18:21 42.20596 -76.77991 37883 ft 340 kts 272°
2026-05-06 18:21 42.21058 -76.84333 37890 ft 340 kts 272°
2026-05-06 18:22 42.21510 -76.90669 37892 ft 339 kts 272°
2026-05-06 18:22 42.21958 -76.96990 37892 ft 339 kts 272°
2026-05-06 18:23 42.22326 -77.02254 37891 ft 339 kts 272°
2026-05-06 18:23 42.22847 -77.09655 37900 ft 339 kts 272°
2026-05-06 18:24 42.23215 -77.14930 37902 ft 339 kts 272°
2026-05-06 18:24 42.23656 -77.21266 37900 ft 339 kts 272°
2026-05-06 18:25 42.24093 -77.27608 37920 ft 339 kts 272°
2026-05-06 18:25 42.24518 -77.33956 37914 ft 340 kts 272°
2026-05-06 18:26 42.24944 -77.40303 37911 ft 340 kts 272°
2026-05-06 18:26 42.25363 -77.46651 37910 ft 340 kts 272°
2026-05-06 18:27 42.25886 -77.52995 37911 ft 343 kts 278°
2026-05-06 18:27 42.27027 -77.59252 37920 ft 343 kts 278°
2026-05-06 18:28 42.28151 -77.65482 37925 ft 343 kts 278°
2026-05-06 18:28 42.29280 -77.71750 37921 ft 344 kts 278°
2026-05-06 18:29 42.30407 -77.78028 37914 ft 344 kts 278°
2026-05-06 18:29 42.31530 -77.84302 37896 ft 344 kts 278°
2026-05-06 18:30 42.32649 -77.90583 37905 ft 344 kts 278°
2026-05-06 18:30 42.33764 -77.96866 37925 ft 344 kts 278°
2026-05-06 18:31 42.34881 -78.03162 37902 ft 344 kts 278°
2026-05-06 18:31 42.35992 -78.09469 37897 ft 345 kts 278°
2026-05-06 18:32 42.37105 -78.15790 37895 ft 346 kts 278°
2026-05-06 18:32 42.38215 -78.22113 37896 ft 346 kts 278°
2026-05-06 18:33 42.39320 -78.28444 37898 ft 346 kts 278°
2026-05-06 18:33 42.40421 -78.34792 37901 ft 346 kts 278°
2026-05-06 18:34 42.41522 -78.41138 37901 ft 346 kts 278°
2026-05-06 18:34 42.42619 -78.47486 37902 ft 346 kts 278°
2026-05-06 18:35 42.43717 -78.53835 37904 ft 346 kts 278°
2026-05-06 18:35 42.44807 -78.60189 37906 ft 347 kts 277°
2026-05-06 18:36 42.45890 -78.66553 37930 ft 347 kts 277°
2026-05-06 18:36 42.46922 -78.72904 37909 ft 346 kts 273°
2026-05-06 18:37 42.47199 -78.79423 37867 ft 345 kts 269°
2026-05-06 18:37 42.47417 -78.85875 37868 ft 345 kts 270°
2026-05-06 18:38 42.47634 -78.92362 37905 ft 344 kts 269°
2026-05-06 18:38 42.47839 -78.98841 37925 ft 344 kts 269°
2026-05-06 18:39 42.48041 -79.05311 37936 ft 344 kts 269°
2026-05-06 18:40 42.48347 -79.15012 37956 ft 344 kts 269°
2026-05-06 18:40 42.48546 -79.21483 37949 ft 344 kts 269°
2026-05-06 18:41 42.48739 -79.27954 37945 ft 344 kts 269°
2026-05-06 18:41 42.48930 -79.34427 37944 ft 344 kts 269°
2026-05-06 18:42 42.49113 -79.40903 37943 ft 344 kts 269°
2026-05-06 18:42 42.49299 -79.47386 37962 ft 344 kts 269°
2026-05-06 18:43 42.49481 -79.53875 37950 ft 345 kts 269°
2026-05-06 18:43 42.49656 -79.60374 37946 ft 346 kts 269°
2026-05-06 18:44 42.49825 -79.66846 37947 ft 346 kts 269°
2026-05-06 18:44 42.49997 -79.73395 37949 ft 346 kts 269°
2026-05-06 18:45 42.50163 -79.79920 37968 ft 346 kts 269°
2026-05-06 18:45 42.50322 -79.86394 37957 ft 347 kts 269°
2026-05-06 18:46 42.50478 -79.92931 37954 ft 347 kts 269°
2026-05-06 18:46 42.50634 -79.99473 37953 ft 348 kts 269°
2026-05-06 18:47 42.50786 -80.06030 37949 ft 348 kts 269°
2026-05-06 18:47 42.50930 -80.12584 37949 ft 348 kts 269°
2026-05-06 18:48 42.51074 -80.19142 37961 ft 348 kts 269°
2026-05-06 18:48 42.51214 -80.25710 37950 ft 349 kts 269°
2026-05-06 18:49 42.51351 -80.32293 37944 ft 350 kts 268°
2026-05-06 18:49 42.51487 -80.38885 37944 ft 350 kts 269°
2026-05-06 18:50 42.51616 -80.45490 37949 ft 350 kts 268°
2026-05-06 18:50 42.51744 -80.52091 37943 ft 350 kts 268°
2026-05-06 18:51 42.51865 -80.58700 37964 ft 351 kts 268°
2026-05-06 18:51 42.51972 -80.65321 37957 ft 352 kts 268°
2026-05-06 18:52 42.52040 -80.71965 37952 ft 353 kts 268°
2026-05-06 18:52 42.52104 -80.78621 37959 ft 353 kts 268°
2026-05-06 18:53 42.52162 -80.85284 37682 ft 353 kts 268°
2026-05-06 18:53 42.52189 -80.88607 37405 ft 352 kts 268°
2026-05-06 18:53 42.52218 -80.91923 37195 ft 351 kts 268°
2026-05-06 18:53 42.52247 -80.95167 36853 ft 346 kts 268°
2026-05-06 18:54 42.52276 -80.98418 36322 ft 344 kts 268°
2026-05-06 18:54 42.52302 -81.01655 35779 ft 343 kts 268°
2026-05-06 18:54 42.52329 -81.04884 35175 ft 343 kts 268°
2026-05-06 18:54 42.52353 -81.08112 34573 ft 342 kts 268°
2026-05-06 18:55 42.52377 -81.11342 33922 ft 343 kts 268°
2026-05-06 18:55 42.52400 -81.14567 33163 ft 343 kts 268°
2026-05-06 18:55 42.52421 -81.17805 32453 ft 342 kts 268°
2026-05-06 18:55 42.52440 -81.21035 31731 ft 343 kts 268°
2026-05-06 18:56 42.52458 -81.24264 31050 ft 343 kts 268°
2026-05-06 18:56 42.52477 -81.27502 30288 ft 345 kts 268°
2026-05-06 18:56 42.52492 -81.30768 29469 ft 347 kts 268°
2026-05-06 18:56 42.52509 -81.34006 29162 ft 342 kts 268°
2026-05-06 18:57 42.52503 -81.37219 28891 ft 340 kts 264°
2026-05-06 18:57 42.52277 -81.40400 28609 ft 339 kts 263°
2026-05-06 18:57 42.52041 -81.43578 28340 ft 338 kts 263°
2026-05-06 18:57 42.51805 -81.46745 27885 ft 337 kts 263°
2026-05-06 18:58 42.51571 -81.49897 27384 ft 335 kts 263°
2026-05-06 18:58 42.51337 -81.53027 26888 ft 334 kts 262°
2026-05-06 18:58 42.51101 -81.56154 26387 ft 333 kts 262°
2026-05-06 18:58 42.50865 -81.59269 25886 ft 332 kts 262°
2026-05-06 18:59 42.50628 -81.62376 25379 ft 331 kts 262°
2026-05-06 18:59 42.50391 -81.65477 24891 ft 330 kts 262°
2026-05-06 18:59 42.50160 -81.68534 24398 ft 329 kts 262°
2026-05-06 18:59 42.49926 -81.71613 23910 ft 328 kts 262°
2026-05-06 19:00 42.49691 -81.74690 23391 ft 328 kts 262°
2026-05-06 19:00 42.49455 -81.77758 22860 ft 327 kts 262°
2026-05-06 19:00 42.49218 -81.80807 22374 ft 324 kts 262°
2026-05-06 19:00 42.49062 -81.82813 22052 ft 323 kts 261°
2026-05-06 19:01 42.48747 -81.86837 21407 ft 320 kts 261°
2026-05-06 19:01 42.48513 -81.89824 20922 ft 318 kts 261°
2026-05-06 19:01 42.48282 -81.92792 20440 ft 316 kts 261°
2026-05-06 19:01 42.48052 -81.95742 19971 ft 314 kts 261°
2026-05-06 19:02 42.47823 -81.98671 19501 ft 312 kts 261°
2026-05-06 19:02 42.47592 -82.01589 19031 ft 310 kts 260°
2026-05-06 19:02 42.47359 -82.04485 18566 ft 308 kts 260°
2026-05-06 19:02 42.47126 -82.07364 18080 ft 307 kts 260°
2026-05-06 19:03 42.46895 -82.10223 17625 ft 305 kts 260°
2026-05-06 19:03 42.46664 -82.13078 17152 ft 304 kts 260°
2026-05-06 19:03 42.46433 -82.15922 16684 ft 303 kts 261°
2026-05-06 19:03 42.46205 -82.18746 16164 ft 301 kts 261°
2026-05-06 19:04 42.45978 -82.21554 15655 ft 299 kts 261°
2026-05-06 19:04 42.45752 -82.24344 15321 ft 299 kts 261°
2026-05-06 19:04 42.45524 -82.27142 14881 ft 299 kts 261°
2026-05-06 19:04 42.45295 -82.29938 14443 ft 298 kts 261°
2026-05-06 19:05 42.45065 -82.32728 13997 ft 297 kts 261°
2026-05-06 19:05 42.44787 -82.35506 13311 ft 301 kts 260°
2026-05-06 19:05 42.44454 -82.38316 12722 ft 300 kts 259°
2026-05-06 19:05 42.44110 -82.41045 12447 ft 284 kts 259°
2026-05-06 19:06 42.43793 -82.43540 12211 ft 264 kts 259°
2026-05-06 19:06 42.43490 -82.45952 11650 ft 257 kts 259°
2026-05-06 19:06 42.43195 -82.48327 11014 ft 255 kts 260°
2026-05-06 19:06 42.42905 -82.50685 10381 ft 253 kts 260°
2026-05-06 19:07 42.42620 -82.53006 10041 ft 250 kts 260°
2026-05-06 19:07 42.42427 -82.54586 9911 ft 253 kts 260°
2026-05-06 19:07 42.42043 -82.57720 9740 ft 256 kts 260°
2026-05-06 19:07 42.41754 -82.60096 9599 ft 255 kts 261°
2026-05-06 19:08 42.41465 -82.62465 9325 ft 254 kts 261°
2026-05-06 19:08 42.41175 -82.64820 8973 ft 253 kts 261°
2026-05-06 19:08 42.40885 -82.67160 8622 ft 252 kts 261°
2026-05-06 19:08 42.40596 -82.69488 8252 ft 251 kts 261°
2026-05-06 19:09 42.40307 -82.71813 7910 ft 250 kts 261°
2026-05-06 19:09 42.40019 -82.74134 7549 ft 250 kts 261°
2026-05-06 19:09 42.39863 -82.76471 7190 ft 250 kts 272°
2026-05-06 19:09 42.40131 -82.78786 6864 ft 248 kts 286°
2026-05-06 19:10 42.40812 -82.80943 6753 ft 255 kts 298°
2026-05-06 19:10 42.41689 -82.83043 6597 ft 257 kts 298°
2026-05-06 19:10 42.42245 -82.84450 6414 ft 256 kts 292°
2026-05-06 19:10 42.42505 -82.86761 6240 ft 247 kts 263°
2026-05-06 19:11 42.41866 -82.88859 6116 ft 241 kts 232°
2026-05-06 19:11 42.40548 -82.90179 6001 ft 235 kts 207°
2026-05-06 19:11 42.39064 -82.90970 5985 ft 226 kts 203°
2026-05-06 19:11 42.37578 -82.91679 5996 ft 226 kts 202°
2026-05-06 19:12 42.36094 -82.92373 5998 ft 226 kts 202°
2026-05-06 19:12 42.34608 -82.93066 5999 ft 226 kts 202°
2026-05-06 19:12 42.33121 -82.93756 6000 ft 226 kts 202°
2026-05-06 19:12 42.31636 -82.94445 5999 ft 226 kts 202°
2026-05-06 19:13 42.30149 -82.95133 6000 ft 226 kts 202°
2026-05-06 19:13 42.28663 -82.95820 6000 ft 226 kts 202°
2026-05-06 19:13 42.27176 -82.96506 6000 ft 226 kts 202°
2026-05-06 19:13 42.25691 -82.97193 5999 ft 226 kts 202°
2026-05-06 19:14 42.24207 -82.97879 6007 ft 226 kts 202°
2026-05-06 19:14 42.22723 -82.98567 6002 ft 225 kts 202°
2026-05-06 19:14 42.21244 -82.99252 5997 ft 225 kts 202°
2026-05-06 19:14 42.19762 -82.99939 5998 ft 225 kts 202°
2026-05-06 19:15 42.18277 -83.00628 6004 ft 226 kts 202°
2026-05-06 19:15 42.16786 -83.01323 6010 ft 227 kts 202°
2026-05-06 19:15 42.15293 -83.02021 6007 ft 227 kts 202°
2026-05-06 19:15 42.13801 -83.02719 6007 ft 227 kts 202°
2026-05-06 19:16 42.12310 -83.03416 6009 ft 227 kts 202°
2026-05-06 19:16 42.10820 -83.04111 6005 ft 227 kts 202°
2026-05-06 19:16 42.09327 -83.04808 6012 ft 227 kts 202°
2026-05-06 19:16 42.07836 -83.05507 6006 ft 227 kts 202°
2026-05-06 19:17 42.06345 -83.06206 6014 ft 227 kts 202°
2026-05-06 19:17 42.04857 -83.06906 6014 ft 226 kts 202°
2026-05-06 19:17 42.03375 -83.07602 6005 ft 225 kts 202°
2026-05-06 19:17 42.01891 -83.08290 6014 ft 226 kts 202°
2026-05-06 19:18 42.00407 -83.08987 6016 ft 226 kts 202°
2026-05-06 19:18 41.98924 -83.09680 6002 ft 225 kts 202°
2026-05-06 19:18 41.97427 -83.10362 6004 ft 229 kts 202°
2026-05-06 19:18 41.95907 -83.11032 6004 ft 230 kts 202°
2026-05-06 19:19 41.94384 -83.11697 6000 ft 230 kts 202°
2026-05-06 19:19 41.92861 -83.12359 6003 ft 230 kts 202°
2026-05-06 19:19 41.91338 -83.13028 6002 ft 230 kts 204°
2026-05-06 19:19 41.90024 -83.14124 5998 ft 220 kts 233°
2026-05-06 19:20 41.89280 -83.15873 6007 ft 215 kts 255°
2026-05-06 19:20 41.88975 -83.17822 6007 ft 213 kts 267°
2026-05-06 19:20 41.89015 -83.19800 6011 ft 212 kts 276°
2026-05-06 19:20 41.89171 -83.21770 6020 ft 212 kts 277°
2026-05-06 19:21 41.89341 -83.23738 6012 ft 212 kts 277°
2026-05-06 19:21 41.89528 -83.25702 6010 ft 212 kts 283°
2026-05-06 19:21 41.90160 -83.27457 6010 ft 212 kts 310°
2026-05-06 19:21 41.91271 -83.28767 6018 ft 213 kts 319°
2026-05-06 19:22 41.92411 -83.30012 5764 ft 211 kts 319°
2026-05-06 19:22 41.93556 -83.31260 5433 ft 212 kts 319°
2026-05-06 19:22 41.94665 -83.32554 5119 ft 211 kts 307°
2026-05-06 19:22 41.95192 -83.34331 5008 ft 209 kts 274°
2026-05-06 19:23 41.95134 -83.36281 4800 ft 209 kts 264°
2026-05-06 19:23 41.94943 -83.38217 4547 ft 206 kts 263°
2026-05-06 19:23 41.94737 -83.40086 4412 ft 198 kts 263°
2026-05-06 19:23 41.94539 -83.41875 4283 ft 189 kts 263°
2026-05-06 19:24 41.94415 -83.43576 4131 ft 183 kts 279°
2026-05-06 19:24 41.94976 -83.45059 4041 ft 183 kts 318°
2026-05-06 19:24 41.96141 -83.45727 4059 ft 187 kts 347°
2026-05-06 19:24 41.97448 -83.45926 4018 ft 188 kts 352°
2026-05-06 19:25 41.98745 -83.46046 4005 ft 186 kts 353°
2026-05-06 19:25 42.00037 -83.46155 4007 ft 186 kts 353°
2026-05-06 19:25 42.01325 -83.46266 4012 ft 186 kts 352°
2026-05-06 19:25 42.02617 -83.46254 3997 ft 188 kts 10°
2026-05-06 19:26 42.03824 -83.45538 4010 ft 192 kts 23°
2026-05-06 19:26 42.05036 -83.44794 4007 ft 190 kts 16°
2026-05-06 19:26 42.06238 -83.44034 3988 ft 192 kts 22°
2026-05-06 19:26 42.07521 -83.43605 3574 ft 193 kts
2026-05-06 19:27 42.08820 -83.43068 3193 ft 199 kts 23°
2026-05-06 19:27 42.10042 -83.42184 2877 ft 198 kts 25°
2026-05-06 19:27 42.11243 -83.41297 2599 ft 193 kts 25°
2026-05-06 19:27 42.12377 -83.40461 2334 ft 179 kts 25°
2026-05-06 19:28 42.13429 -83.39687 2093 ft 166 kts 24°
2026-05-06 19:28 42.14409 -83.38967 1887 ft 155 kts 24°
2026-05-06 19:28 42.15317 -83.38300 1684 ft 146 kts 23°
2026-05-06 19:28 42.16194 -83.37656 1455 ft 143 kts 24°
2026-05-06 19:29 42.17054 -83.37024 1235 ft 138 kts 25°
2026-05-06 19:29 42.17891 -83.36410 1107 ft 136 kts 23°
2026-05-06 19:29 42.18724 -83.35813 863 ft 134 kts 24°
2026-05-06 19:29 42.19541 -83.35199 718 ft 135 kts 24°
2026-05-06 19:30 42.20328 -83.34615 650 ft 117 kts 27°
2026-05-06 19:30 42.20895 -83.34203 648 ft 68 kts 28°
2026-05-06 19:30 42.21223 -83.33960 647 ft 45 kts 30°
2026-05-06 19:30 42.21470 -83.33780 645 ft 37 kts 29°
2026-05-06 19:31 42.21681 -83.33626 643 ft 31 kts 29°
2026-05-06 19:31 42.21833 -83.33561 644 ft 18 kts 321°
2026-05-06 19:31 42.21851 -83.33596 645 ft 1 kts 288°
2026-05-06 19:32 42.21854 -83.33614 645 ft 3 kts 276°
2026-05-06 19:32 42.21855 -83.33653 645 ft 5 kts 268°
2026-05-06 19:32 42.21851 -83.33716 647 ft 8 kts 266°
2026-05-06 19:32 42.21849 -83.33809 646 ft 11 kts 268°
2026-05-06 19:33 42.21848 -83.33911 646 ft 12 kts 270°
2026-05-06 19:33 42.21847 -83.34019 647 ft 11 kts 269°
2026-05-06 19:33 42.21846 -83.34137 646 ft 10 kts 269°
2026-05-06 19:33 42.21844 -83.34228 646 ft 10 kts 268°
2026-05-06 19:34 42.21840 -83.34311 646 ft 6 kts 266°
2026-05-06 19:34 42.21838 -83.34372 647 ft 8 kts 266°
2026-05-06 19:34 42.21834 -83.34466 647 ft 13 kts 270°
2026-05-06 19:34 42.21836 -83.34606 647 ft 13 kts 271°
2026-05-06 19:35 42.21835 -83.34752 646 ft 18 kts 267°
2026-05-06 19:35 42.21832 -83.34929 647 ft 19 kts 269°
2026-05-06 19:35 42.21828 -83.35122 646 ft 22 kts 269°
2026-05-06 19:35 42.21824 -83.35321 646 ft 17 kts 268°
2026-05-06 19:36 42.21821 -83.35481 646 ft 15 kts 269°
2026-05-06 19:36 42.21819 -83.35623 645 ft 15 kts 269°
2026-05-06 19:36 42.21817 -83.35674 645 ft 2 kts 265°
2026-05-06 19:36 42.21809 -83.35696 647 ft 0 kts 232°
2026-05-06 19:37 42.21807 -83.35701 646 ft 2 kts 245°
2026-05-06 19:37 42.21804 -83.35719 645 ft 4 kts 260°
2026-05-06 19:38 42.21810 -83.35742 644 ft 2 kts 310°
2026-05-06 19:38 42.21826 -83.35739 646 ft 3 kts 33°
2026-05-06 19:38 42.21836 -83.35708 647 ft 5 kts 69°
2026-05-06 19:38 42.21858 -83.35668 647 ft 7 kts 37°
2026-05-06 19:39 42.21905 -83.35631 647 ft 9 kts 28°
2026-05-06 19:39 42.21972 -83.35582 646 ft 13 kts 28°
2026-05-06 19:39 42.22052 -83.35523 646 ft 13 kts 29°
2026-05-06 19:39 42.22138 -83.35459 646 ft 16 kts 28°
2026-05-06 19:40 42.22229 -83.35392 646 ft 14 kts 28°
2026-05-06 19:40 42.22280 -83.35353 647 ft 1 kts 32°
2026-05-06 19:40 42.22296 -83.35339 646 ft 5 kts 35°
2026-05-06 19:40 42.22330 -83.35302 646 ft 8 kts 33°
2026-05-06 19:41 42.22376 -83.35244 648 ft 11 kts 55°
2026-05-06 19:41 42.22418 -83.35165 648 ft 8 kts 53°
2026-05-06 19:41 42.22440 -83.35118 646 ft 5 kts 71°
2026-05-06 19:41 42.22430 -83.35069 646 ft 0 kts 120°
2026-05-06 19:42 42.22424 -83.35057 648 ft 3 kts 126°
2026-05-06 19:42 42.22415 -83.35041 647 ft 2 kts 128°
2026-05-06 19:42 42.22412 -83.35037 646 ft 0 kts 128°